GFSSGP_925_rhum_072.txt.gz
RH
26 19 16 31 45 42 40 32 21 20 23 20 20 22 27 29 31 48 58 66 68 65 69 78 82 66 57 52 49 53 61 57 57 61 63 71 71 71 67 66 73 86 87 93 92 82 91 99 95
24 19 25 40 44 47 40 26 21 20 23 19 17 19 24 49 60 66 64 65 69 68 66 68 74 72 65 58 57 59 64 61 57 54 62 65 66 62 61 73 80 84 86 85 86 82 93 97 89
20 24 39 42 48 49 38 21 16 14 18 15 16 16 36 49 59 62 57 60 74 74 70 67 69 76 79 73 69 69 69 63 56 58 62 59 56 57 75 79 86 87 87 88 90 91 97 85 84
22 34 41 35 39 33 28 21 19 14 13 13 17 39 36 34 52 50 55 62 65 68 76 70 67 78 81 81 80 78 71 66 56 50 58 56 55 63 79 84 86 89 88 87 90 95 81 83 82
24 35 41 37 34 25 21 18 16 14 14 17 16 24 46 50 45 52 53 55 57 70 73 78 70 66 75 86 83 82 79 72 64 58 62 65 72 79 82 86 92 91 89 85 90 84 79 82 90
32 34 38 42 31 20 18 16 15 14 19 18 17 47 50 51 54 55 55 57 65 66 72 82 78 72 70 73 79 82 80 79 76 73 75 76 84 86 87 89 91 89 84 86 82 78 76 78 84
35 42 36 30 27 22 17 15 15 14 12 21 23 39 53 52 50 52 54 60 64 70 76 84 86 87 92 89 78 79 80 96 97 93 87 74 79 88 87 88 90 87 78 81 82 75 74 70 66
33 39 38 34 33 30 18 15 15 12 12 18 18 45 59 49 54 53 59 64 67 74 78 82 88 88 88 87 85 81 94 86 84 90 91 87 79 90 84 88 89 85 72 76 75 68 61 60 68
30 46 49 34 30 24 17 16 13 12 20 18 18 31 39 47 56 67 76 80 77 76 75 76 87 86 87 86 93 92 97 78 79 86 75 84 96 90 86 87 85 81 72 74 67 59 61 57 60
43 47 44 29 23 21 18 17 15 15 14 17 30 60 57 56 60 78 84 86 82 79 79 82 89 96 90 93 93 91 88 94 91 79 78 68 73 98 83 81 79 77 75 72 63 56 60 63 68
38 41 31 25 20 19 20 18 15 13 18 18 24 67 62 61 62 69 81 78 80 80 88 87 96 94 100 99 97 92 87 85 78 73 71 68 76 99 86 88 82 79 79 73 66 56 56 65 66
42 30 28 25 21 20 19 15 16 13 14 15 27 56 58 59 62 61 63 80 86 88 88 96 100 94 99 99 87 76 76 78 83 74 66 78 82 100 100 98 85 82 69 63 58 58 53 58 61
37 33 28 25 21 19 17 17 16 14 12 12 32 50 56 55 55 49 66 83 86 84 84 96 100 94 93 88 88 88 87 85 94 87 83 84 100 99 100 99 86 73 60 56 55 59 51 55 64
26 29 28 24 21 18 17 16 13 13 12 12 33 50 51 54 52 72 86 95 87 80 85 93 96 94 95 87 91 96 99 96 86 91 82 99 100 100 100 100 89 68 56 50 57 57 52 52 59
28 30 24 22 21 21 17 18 18 12 12 13 13 35 39 51 50 69 78 91 80 83 88 90 95 92 85 79 82 92 99 96 99 83 86 100 100 99 100 94 85 65 51 49 55 54 53 54 57
34 33 39 24 21 18 18 24 16 13 14 14 14 29 38 46 44 52 68 79 82 82 90 92 90 92 89 85 90 95 99 95 96 100 97 100 100 94 93 77 64 61 42 45 43 51 53 54 60
42 50 40 30 19 19 18 20 16 13 14 15 15 22 41 46 50 51 67 75 79 77 87 92 88 90 93 91 88 96 100 99 100 100 99 99 94 86 71 53 57 46 37 43 46 51 46 50 61
52 47 38 32 21 22 28 30 21 17 15 14 14 22 36 46 48 58 75 77 82 82 84 83 84 81 90 95 95 98 100 100 100 98 93 93 93 84 61 59 47 42 37 52 56 52 54 52 57
41 44 45 38 29 29 31 29 24 20 18 15 23 26 35 45 45 60 76 80 88 87 83 84 86 88 96 100 100 100 100 100 100 100 100 98 97 90 66 61 57 45 42 58 62 66 61 56 53
45 48 48 35 26 27 33 31 25 20 18 16 23 29 34 48 56 61 77 84 94 94 89 89 88 92 92 100 92 99 100 99 98 100 100 100 99 95 78 61 70 62 55 51 58 65 64 59 54
46 49 50 48 31 28 32 35 28 23 16 16 21 24 28 49 56 57 72 81 98 100 98 100 95 98 90 87 98 100 99 100 100 100 100 100 95 92 88 71 78 72 64 62 68 65 57 56 58
55 40 48 51 44 50 36 63 34 26 20 17 17 23 29 43 50 51 62 80 99 100 100 95 91 94 93 90 100 96 98 98 98 100 98 99 94 90 94 83 76 75 71 66 66 65 56 52 61
58 45 62 56 60 59 43 52 37 25 23 21 19 19 30 42 49 52 56 74 89 100 100 93 87 86 91 92 92 92 100 97 96 100 100 97 98 93 88 84 81 76 67 68 65 62 57 50 53
48 69 66 57 61 79 48 47 42 29 21 19 18 17 24 43 47 48 52 71 91 100 100 95 91 88 90 99 98 97 99 99 99 100 100 100 98 94 89 79 79 75 74 78 80 70 66 60 44
65 91 86 80 82 75 40 43 38 27 22 22 22 19 20 40 47 52 61 72 96 100 99 100 97 100 97 99 99 98 91 94 96 99 98 99 98 92 84 75 79 80 75 74 73 73 73 49 42
66 92 96 90 91 78 47 47 33 22 18 18 17 18 25 44 49 54 60 63 89 98 99 98 98 96 100 100 100 99 96 93 91 96 98 92 93 89 82 71 74 81 76 66 59 66 63 54 49
70 94 67 95 88 91 65 48 29 27 24 20 19 22 36 47 53 54 56 59 84 96 99 99 99 97 99 100 100 100 99 97 95 93 94 94 89 86 84 75 70 68 62 57 54 59 62 54 55
60 59 90 99 96 94 61 53 55 39 34 28 36 39 41 44 52 52 52 57 72 86 96 100 100 98 100 96 99 100 98 96 95 89 87 91 88 84 82 79 76 72 66 64 65 60 61 63 65
86 96 94 82 81 98 90 89 51 54 38 38 41 44 46 48 41 53 51 53 64 78 86 98 100 100 100 94 98 96 94 92 94 93 87 83 84 84 83 81 78 79 76 71 69 72 71 72 70
59 78 94 100 89 80 93 89 73 73 55 40 44 45 50 55 52 54 58 60 69 74 78 88 95 99 99 100 100 95 88 89 89 91 92 88 84 82 83 81 79 77 76 82 84 83 82 81 79

GFSSGP_925_rhum_075.txt.gz
RH
30 25 19 33 41 47 46 34 26 23 20 21 20 25 26 28 26 32 62 54 67 60 62 61 55 52 54 64 68 63 61 61 66 69 78 83 77 75 74 74 82 87 89 94 94 94 94 97 91
30 22 27 41 51 48 40 32 26 22 19 19 24 36 32 42 62 66 73 68 63 59 61 65 63 57 54 58 64 70 70 66 63 69 75 79 76 76 75 74 83 84 86 92 95 93 87 98 90
22 27 36 46 55 51 33 28 20 18 15 20 18 23 38 48 61 69 56 56 64 62 64 64 67 62 63 60 64 71 70 61 60 64 66 69 74 73 74 75 81 82 83 90 91 83 91 94 90
27 34 42 46 47 42 32 23 22 20 15 14 17 35 38 45 63 55 53 54 65 68 68 68 68 68 68 66 68 69 72 68 64 67 73 72 69 66 63 79 80 82 80 79 91 86 95 94 90
26 42 53 49 44 34 25 22 20 19 16 16 18 35 41 46 51 54 58 59 67 76 75 73 70 71 75 78 70 70 75 71 67 71 79 73 80 79 75 79 84 84 81 82 86 92 93 92 88
34 38 48 56 38 26 21 19 17 18 17 16 20 44 50 51 55 60 64 64 63 65 78 77 75 79 83 81 79 70 70 73 71 78 82 89 84 87 87 89 89 87 86 89 90 96 93 88 86
29 40 45 38 30 27 20 17 18 18 18 20 26 53 52 61 59 58 64 66 61 62 75 84 82 92 99 94 86 79 74 71 76 95 89 84 76 81 87 90 91 88 88 86 94 92 86 83 81
38 40 45 38 33 29 18 17 15 16 17 20 37 56 60 59 59 61 65 73 74 73 74 83 87 86 94 99 91 88 84 87 83 87 93 81 81 74 78 84 90 86 86 87 92 88 90 82 77
33 46 57 41 35 24 20 19 16 14 16 20 21 50 41 48 63 71 79 85 85 89 83 86 86 89 92 91 92 86 86 93 68 61 74 82 90 83 88 90 86 85 82 88 82 85 76 73 76
47 59 41 33 24 25 22 20 21 16 18 17 20 55 58 59 74 84 91 95 93 89 87 85 82 93 90 77 89 88 98 99 93 71 80 82 79 82 75 80 86 83 81 85 81 67 64 74 78
48 41 32 31 28 27 25 22 18 20 21 18 19 42 69 68 72 80 87 84 83 76 82 85 86 98 97 85 93 97 98 100 98 98 92 89 86 91 88 86 85 82 84 82 71 63 70 73 73
48 40 34 31 28 26 26 23 22 19 18 16 16 47 67 67 72 77 86 82 79 81 84 86 93 100 97 95 100 99 99 100 99 97 91 83 88 85 78 94 87 84 83 82 70 62 66 72 69
43 40 34 32 30 28 25 26 24 21 18 16 16 65 68 64 64 64 72 75 77 85 87 97 95 99 99 99 96 99 98 98 100 94 88 81 76 76 97 100 96 82 84 83 72 64 72 70 69
27 29 31 30 31 30 29 26 22 19 14 15 21 64 65 65 67 72 74 84 85 83 86 98 94 88 93 89 86 86 82 75 81 95 100 88 83 94 100 100 94 84 80 83 70 67 65 65 64
33 40 35 30 27 29 24 27 27 18 16 15 20 48 58 62 61 67 76 86 81 81 82 92 99 92 94 92 95 98 96 99 89 92 100 100 85 100 100 100 97 86 78 78 69 63 61 65 66
40 40 49 30 27 25 22 31 22 18 17 17 16 31 51 62 54 60 75 84 82 79 82 92 97 95 94 86 87 96 100 100 100 96 85 100 98 91 100 100 94 84 73 69 63 64 64 64 71
48 55 49 38 25 24 25 27 21 18 16 18 17 20 42 49 55 64 82 84 79 77 86 95 98 97 89 86 88 100 99 99 97 100 97 94 98 100 100 100 90 76 67 65 64 63 59 61 73
59 57 47 43 28 27 30 33 28 24 24 24 20 17 35 43 50 55 82 86 78 85 89 90 95 93 87 84 84 99 98 100 98 100 100 100 100 100 99 92 86 67 69 62 65 58 58 57 67
47 49 52 45 36 37 38 35 30 27 27 27 23 20 28 44 37 64 86 89 88 97 95 93 94 96 83 90 95 100 100 100 98 100 100 98 99 99 90 86 76 67 59 58 58 56 54 62 71
50 54 53 44 36 38 37 38 30 26 27 24 21 19 21 47 67 83 92 99 100 100 99 96 93 89 84 94 96 99 93 99 100 100 100 98 91 84 88 75 68 66 54 54 55 57 58 60 68
56 54 52 52 45 38 41 42 33 26 26 23 18 18 26 48 63 82 89 97 100 100 100 94 88 87 94 99 99 94 98 100 100 100 100 100 98 93 91 72 62 62 53 55 58 58 56 60 67
70 45 45 60 64 65 40 66 42 34 30 23 21 25 32 50 54 68 81 96 97 99 96 89 91 92 95 100 99 85 97 98 98 97 100 100 100 100 95 80 67 59 55 59 59 61 63 57 66
64 52 66 67 74 68 62 66 46 31 32 26 22 20 26 44 54 60 74 86 96 98 99 99 99 100 98 98 100 94 97 97 97 99 100 100 100 100 94 86 77 77 60 61 64 66 65 61 62
48 74 80 70 68 98 64 56 55 39 29 22 20 20 22 35 51 53 62 82 97 96 98 99 99 99 97 94 99 98 95 96 94 97 100 100 100 100 100 96 85 80 77 79 62 68 69 63 59
64 85 89 95 96 86 49 54 44 32 27 25 23 20 21 34 49 57 71 90 93 94 97 99 100 97 100 97 95 96 89 94 87 99 100 100 100 100 93 91 93 87 74 81 81 74 71 71 71
76 82 91 90 92 72 46 55 40 26 22 26 27 23 22 26 45 56 67 84 92 93 94 98 100 99 99 100 100 97 93 93 96 92 99 100 100 98 96 92 95 94 88 79 83 83 83 83 83
90 95 69 100 94 95 71 52 35 37 36 37 47 34 28 40 47 56 66 82 92 92 94 96 98 100 99 99 100 100 98 94 90 89 89 95 97 96 97 93 87 84 89 86 86 83 82 79 80
74 65 97 100 95 95 70 55 72 73 68 51 52 59 57 55 59 60 65 80 88 94 96 96 95 98 97 97 96 99 99 94 91 91 94 95 90 91 93 87 82 83 85 90 92 90 84 83 80
86 93 94 86 87 98 94 95 72 94 85 63 60 68 76 59 63 62 65 78 91 98 96 96 96 99 96 98 97 98 100 96 93 90 90 94 96 91 90 87 84 83 81 79 82 83 88 92 90
71 80 95 100 95 88 99 86 74 84 82 63 68 74 81 79 71 69 76 84 88 94 98 98 99 98 97 99 96 95 100 98 98 96 90 89 88 91 88 86 83 84 82 81 83 84 85 80 81

GFSSGP_925_rhum_078.txt.gz
RH
30 28 21 34 37 50 47 34 28 25 21 22 24 28 27 22 31 29 51 54 55 50 51 57 69 76 68 67 66 62 57 60 67 69 70 73 74 75 76 73 78 85 88 93 92 92 95 96 94
31 23 29 44 44 41 37 35 29 25 19 22 28 35 32 28 60 65 66 52 51 54 55 58 69 89 74 71 70 67 64 59 65 68 69 73 79 78 74 72 86 86 87 90 93 96 97 94 90
26 27 38 48 62 38 30 28 26 20 19 21 18 26 28 32 61 67 51 45 53 60 55 59 71 93 83 76 77 71 70 68 72 80 80 79 76 76 74 75 85 83 86 88 95 99 96 91 88
29 34 44 50 54 42 28 21 22 22 17 16 17 28 37 43 58 49 47 49 60 65 57 60 66 85 91 73 77 89 71 73 75 77 79 91 77 74 75 83 82 81 82 88 94 94 93 92 87
28 46 53 59 51 38 32 28 21 21 18 19 20 24 40 42 53 53 50 56 56 66 61 62 67 83 85 72 73 87 83 69 73 84 88 89 82 85 78 83 79 75 80 91 92 90 97 93 88
34 44 57 63 46 30 26 23 18 18 18 19 21 26 40 49 56 58 56 59 62 62 70 70 73 82 80 76 71 71 70 74 71 78 89 90 86 82 83 79 78 78 78 91 90 95 95 92 92
26 45 50 44 38 33 22 21 20 19 19 18 22 33 44 58 58 59 60 62 69 74 74 77 80 85 88 88 82 74 71 71 77 86 86 91 83 64 76 81 77 81 89 90 90 99 92 91 87
39 38 42 40 34 30 19 18 16 16 18 19 36 40 38 57 64 66 66 66 65 72 78 81 85 94 99 96 95 93 84 80 82 90 92 90 84 91 83 80 89 89 90 90 94 94 90 88 86
36 44 56 39 34 24 22 21 18 16 17 17 19 38 46 53 70 71 77 75 78 78 81 89 91 91 100 99 99 90 92 89 86 89 76 70 68 77 79 87 87 87 83 96 94 92 88 84 80
46 61 35 35 28 25 22 23 22 20 21 21 18 32 58 68 82 88 94 99 100 88 88 88 92 93 100 98 87 78 87 97 91 89 72 62 63 60 62 84 90 89 83 96 93 86 82 79 80
50 48 33 32 29 28 30 27 22 22 26 22 20 19 66 75 83 86 86 88 95 86 90 90 93 95 98 96 81 71 88 100 94 84 77 80 70 64 84 81 81 92 83 99 93 88 82 79 81
50 46 40 32 29 31 31 26 27 25 25 21 19 19 56 76 82 82 87 84 82 84 87 87 94 99 99 95 79 82 95 100 98 90 92 89 82 95 91 85 90 89 83 92 82 77 77 79 79
41 38 38 35 35 34 32 33 30 28 24 21 20 22 54 70 72 71 77 79 73 80 80 92 100 99 93 90 88 94 95 99 100 100 100 92 98 100 90 78 90 81 90 87 72 72 78 82 77
26 26 28 30 32 33 35 32 33 28 24 23 19 19 46 71 70 75 81 79 77 76 81 97 99 93 98 94 88 97 99 100 100 100 100 88 84 92 98 98 82 87 88 82 70 73 77 76 74
35 45 42 39 35 36 34 38 38 27 24 22 20 20 43 72 66 73 67 74 75 77 79 100 98 94 97 98 87 97 100 100 100 98 100 99 96 99 93 90 92 97 92 79 70 72 76 76 75
40 43 55 35 34 30 28 36 27 23 23 22 21 20 40 68 67 62 62 67 66 76 80 99 99 94 95 94 88 95 96 98 94 100 100 98 100 99 94 100 100 95 92 81 71 71 77 75 72
49 62 54 47 30 30 32 33 25 22 22 23 21 21 21 54 65 57 60 64 65 71 82 97 98 97 99 100 100 98 99 99 93 96 99 99 98 95 100 100 100 99 90 87 72 72 68 74 78
59 60 58 54 37 35 40 40 35 29 28 29 29 28 22 28 45 50 66 73 74 79 84 91 100 98 100 97 98 97 97 98 98 99 100 100 100 100 100 100 100 100 90 89 76 68 70 71 75
46 54 60 49 40 44 42 43 38 33 32 32 31 30 28 26 27 44 80 82 85 86 88 94 100 100 100 100 100 100 99 99 98 99 100 99 100 100 100 99 100 99 84 85 78 68 69 80 84
43 53 59 48 42 43 49 50 39 36 33 29 27 27 27 26 50 79 93 95 94 98 100 100 100 100 100 88 86 94 94 97 100 99 100 100 100 100 100 99 99 94 83 81 78 69 73 85 80
58 63 61 57 47 50 51 49 40 31 30 28 28 26 23 23 53 85 95 95 100 96 99 100 100 100 100 79 89 99 97 96 100 100 99 100 100 100 99 96 94 86 73 74 72 68 63 80 82
74 55 54 55 72 73 51 79 45 39 35 31 28 26 24 30 45 75 88 95 95 95 99 100 100 100 100 93 94 93 99 100 99 100 100 100 100 92 81 83 88 77 67 68 72 65 60 65 81
67 54 68 70 80 83 71 82 56 38 39 34 29 26 24 36 55 74 83 87 92 95 100 100 98 100 98 98 98 87 96 93 92 99 100 100 100 94 84 88 83 69 61 56 61 64 63 60 72
51 66 76 77 79 94 67 78 63 45 36 28 24 21 22 26 58 66 80 89 90 93 100 99 98 96 99 100 97 92 92 97 94 94 100 98 99 100 91 93 90 76 58 54 54 57 63 58 59
72 79 93 96 95 85 54 74 58 35 30 29 32 36 31 25 49 68 87 96 88 94 93 92 97 97 97 99 98 99 92 80 88 95 99 100 100 100 100 100 100 74 69 62 50 64 64 68 65
88 81 88 95 97 91 51 64 46 48 54 45 49 54 55 34 38 63 78 91 89 90 90 97 97 97 100 99 98 100 94 87 85 91 96 98 99 100 98 100 100 99 82 70 74 71 78 80 77
81 99 80 99 88 96 71 56 49 69 72 61 67 74 80 77 44 57 68 89 90 87 90 94 96 97 98 98 99 99 100 94 86 86 92 99 96 99 100 98 97 97 89 90 89 85 88 88 84
75 70 99 100 97 95 73 70 86 83 81 73 81 90 90 76 63 64 78 90 89 88 90 93 95 97 97 97 96 95 99 99 95 90 87 86 94 96 97 95 98 98 96 95 96 89 98 94 93
86 92 93 94 99 94 97 87 78 89 87 76 80 78 86 82 71 78 94 95 86 88 90 94 94 98 94 93 93 91 95 99 97 92 91 91 87 86 88 95 94 96 99 100 100 100 100 97 96
67 82 91 100 99 96 97 86 85 87 72 78 82 83 85 88 89 92 92 87 86 89 94 98 95 94 92 94 94 90 90 97 100 96 91 92 94 94 89 88 92 91 88 90 96 96 99 98 96

GFSSGP_925_rhum_084.txt.gz
RH
27 32 23 21 17 11 8 7 7 13 14 14 15 11 13 14 18 18 34 49 54 60 72 62 48 59 70 69 64 60 59 68 74 71 68 69 72 76 83 82 84 83 84 89 96 93 94 91 88
34 28 18 15 12 9 7 7 8 8 11 12 14 16 17 15 17 24 39 51 53 57 67 80 59 60 74 70 64 62 65 72 78 76 74 74 79 90 82 81 81 82 83 86 94 96 94 91 85
28 20 13 12 12 10 7 6 7 11 11 13 15 18 16 17 26 25 32 51 58 60 64 74 59 62 75 68 64 61 65 73 81 83 90 81 92 88 79 78 81 82 82 85 90 92 90 90 88
22 16 14 15 10 10 7 6 11 13 10 10 12 14 14 21 26 29 38 54 57 62 69 74 58 86 72 67 64 63 68 76 84 90 92 89 72 71 83 79 79 81 83 83 88 88 92 91 90
20 12 12 13 9 7 9 8 9 13 13 11 8 11 14 19 29 39 42 51 54 65 74 68 56 66 65 71 67 66 64 85 97 93 75 76 73 83 78 74 72 78 82 83 84 88 94 91 89
16 14 13 11 9 10 10 6 10 10 8 9 9 11 12 25 30 38 46 51 58 68 82 86 71 76 87 77 72 68 66 69 91 81 70 75 72 76 72 72 71 72 75 78 80 85 94 94 92
17 15 14 11 10 10 11 7 11 8 7 6 9 14 12 18 33 50 52 55 68 75 81 95 94 96 98 99 78 72 70 71 66 78 67 67 70 73 79 87 81 79 84 79 81 92 94 93 91
16 15 17 13 14 13 9 10 9 9 8 10 12 16 17 20 33 58 59 65 71 82 92 84 93 99 99 100 95 79 75 74 72 71 74 73 71 75 85 84 81 76 83 84 81 82 88 88 90
16 19 18 15 16 14 11 12 10 9 10 9 10 12 14 26 41 56 59 64 65 75 81 94 95 99 96 98 99 93 85 86 80 75 75 82 86 90 88 77 78 74 64 72 82 82 85 83 91
20 20 17 13 15 15 13 11 11 11 12 13 11 10 12 24 29 39 48 50 58 65 78 81 99 100 98 99 98 97 98 97 94 94 79 87 94 99 96 89 67 56 55 71 78 76 76 78 95
21 22 16 17 17 14 14 13 11 13 16 12 13 10 10 15 16 30 36 41 44 54 76 90 100 100 92 96 98 95 98 98 98 99 81 88 90 92 86 79 72 71 61 68 90 80 75 87 85
26 21 19 16 15 16 16 14 14 14 15 12 11 10 11 13 15 15 24 31 40 48 74 96 100 100 99 100 97 93 98 99 99 98 99 83 89 84 80 87 76 78 68 82 90 92 89 85 81
20 15 14 16 16 16 15 16 16 15 13 13 13 13 15 15 12 13 15 20 30 48 63 93 96 99 98 99 99 96 96 99 98 99 100 94 89 82 78 74 82 97 98 91 93 91 90 85 77
17 21 19 18 19 18 20 18 16 16 14 14 15 14 14 14 11 12 13 17 23 39 56 84 87 92 91 89 99 98 98 100 100 100 100 98 84 83 87 88 96 99 94 98 90 90 87 78 71
21 22 17 16 16 20 19 24 22 15 13 15 15 15 14 15 12 12 14 16 25 37 53 82 90 94 88 82 88 100 100 100 98 99 100 99 90 88 91 92 98 99 95 92 93 88 81 68 66
24 20 23 13 21 23 25 24 15 14 15 16 15 14 13 12 10 11 12 19 26 38 52 78 89 92 92 84 87 92 95 98 99 100 98 99 94 93 93 94 97 100 98 94 89 86 72 66 65
23 22 18 21 20 20 22 23 18 16 18 18 16 14 14 13 11 11 14 20 29 41 52 77 91 89 91 90 94 96 91 92 98 100 100 99 98 98 88 96 99 100 100 100 84 86 67 66 65
21 26 22 25 19 21 22 22 18 16 19 21 20 16 15 15 13 11 12 22 33 43 56 74 88 86 89 98 99 97 100 100 100 100 100 100 99 100 99 100 100 100 100 100 93 87 72 64 62
20 21 22 20 18 24 26 22 19 16 16 18 20 19 17 16 14 11 13 22 38 47 60 73 90 88 98 100 97 98 98 100 98 99 98 98 100 100 99 100 100 100 100 99 92 85 74 72 65
24 25 25 22 23 30 29 28 23 20 19 19 19 20 18 17 14 12 13 23 42 49 62 76 89 92 95 85 87 92 95 97 91 91 90 94 100 100 99 100 100 100 100 100 93 86 78 70 68
30 31 28 32 34 33 34 30 22 20 19 18 17 17 17 17 16 13 12 19 41 48 62 80 88 90 89 78 90 88 95 99 99 93 92 96 94 97 99 100 100 100 100 100 96 92 76 72 68
33 31 40 42 45 41 33 40 23 23 22 21 20 19 17 17 15 14 13 15 36 45 60 81 88 84 93 86 87 80 75 83 79 96 99 100 96 98 100 100 99 99 100 100 98 91 76 66 70
38 40 43 45 47 46 40 45 22 24 27 26 21 20 19 16 16 14 14 13 30 46 64 80 88 83 89 92 74 75 74 77 78 98 100 99 98 99 100 100 100 100 100 100 98 91 79 73 70
38 46 44 44 47 67 38 38 26 30 44 41 38 34 31 29 30 25 19 18 30 48 66 85 90 90 94 95 73 75 77 80 82 99 100 98 99 99 100 100 100 100 100 100 98 86 77 75 70
45 46 42 58 74 43 35 42 31 43 47 49 50 47 44 42 40 38 30 32 39 54 78 92 94 92 98 81 72 82 79 79 83 100 100 100 100 100 99 100 100 100 99 98 95 89 82 79 76
43 37 42 50 44 39 38 45 39 44 43 44 45 48 49 52 51 41 34 42 47 59 87 93 94 94 97 75 79 89 76 81 86 96 98 100 99 99 94 96 99 100 100 100 96 90 87 83 82
53 63 44 64 52 59 33 31 44 41 46 51 52 54 59 64 63 55 37 48 55 64 89 92 93 93 97 82 88 95 80 81 88 92 87 87 92 99 100 94 92 88 90 90 88 70 81 84 82
52 44 80 68 72 57 32 36 45 58 65 60 56 59 65 71 76 74 49 54 56 70 87 91 79 89 94 90 93 96 87 78 80 81 88 91 94 100 98 100 100 95 91 91 79 82 95 90 81
69 76 76 78 79 63 46 41 56 70 71 60 54 66 74 79 82 85 63 58 66 74 83 84 76 86 90 88 92 91 93 88 87 86 84 87 93 98 100 96 100 100 99 92 76 75 81 88 95
44 54 58 67 76 74 82 50 53 61 58 54 73 67 73 77 81 85 89 75 79 83 89 89 85 90 94 89 89 86 88 94 95 90 82 86 86 92 94 99 100 100 100 100 94 80 76 76 75